DW7368 Weather Reports


time (UTC)temp
F
wind
direction
speed
knots
gust
knots
rain 1hr
in
rain 24hr
in
rain mn
in
humidity
%
barometer
mb
20260505063052 70 232 3.5 7.8 0.00 0.00 0.00 73 1011.7
20260505061547 70 175 1.7 7.8 0.00 0.00 0.00 73 1011.9
20260505060058 70 215 4.3 8.7 0.00 0.00 0.00 72 1011.9
20260505054544 70 184 5.2 8.7 0.00 0.00 0.00 73 1011.9
20260505053041 70 134 3.5 7.0 0.00 0.00 0.00 73 1012.1
20260505051540 70 213 4.3 8.7 0.00 0.00 0.00 72 1012.1
20260505041548 70 224 2.6 7.0 0.00 0.00 0.00 71 1012.8
20260505040034 70 153 3.5 7.0 0.00 0.00 0.00 71 1012.7
20260505034536 69 177 3.5 7.0 0.00 0.00 0.00 71 1012.7
20260505033035 69 160 2.6 5.2 0.00 0.00 0.00 70 1012.5
20260505031534 69 212 3.5 7.0 0.00 0.00 0.00 70 1012.5
20260505030039 69 163 3.5 8.7 0.00 0.00 0.00 70 1012.3
20260505024533 69 192 3.5 6.1 0.00 0.00 0.00 70 1012.2
20260505023034 69 221 2.6 7.0 0.00 0.00 0.00 69 1012.3
20260505021533 69 170 2.6 4.3 0.00 0.00 0.00 69 1012.2
20260505020039 69 219 2.6 6.1 0.00 0.00 0.00 69 1012.3
20260505014538 69 159 1.7 6.1 0.00 0.00 0.00 68 1012.4
20260505013037 69 206 3.5 7.0 0.00 0.00 0.00 67 1012.3
20260505011535 69 168 2.6 6.1 0.00 0.00 0.00 67 1012.3
20260505010027 70 222 0.9 7.8 0.00 0.00 0.00 66 1012.3
20260505004539 70 156 1.7 5.2 0.00 0.00 0.00 65 1012.3
20260505003048 71 141 2.6 7.0 0.00 0.00 0.00 64 1012.6
20260505001525 72 203 2.6 7.0 0.00 0.00 0.00 63 1012.4
20260505000029 73 200 3.5 7.0 0.00 0.00 0.00 61 1012.5
20260504234521 74 213 3.5 7.8 0.00 0.00 0.00 60 1012.7
20260504233018 75 147 3.5 6.1 0.00 0.00 0.00 58 1013.0
20260504231518 75 175 1.7 8.7 0.00 0.00 0.00 57 1013.2
20260504230015 76 155 4.3 8.7 0.00 0.00 0.00 58 1013.0
20260504224518 76 187 5.2 10.4 0.00 0.00 0.00 56 1013.2
20260504223015 76 156 2.6 7.8 0.00 0.00 0.00 57 1013.4
20260504221510 75 203 2.6 11.3 0.00 0.00 0.00 57 1013.5
20260504220010 75 149 3.5 7.0 0.00 0.00 0.00 58 1013.6
20260504214508 74 215 2.6 8.7 0.00 0.00 0.00 59 1013.7
20260504213015 75 220 3.5 7.8 0.00 0.00 0.00 58 1014.2
20260504211511 76 171 3.5 7.8 0.00 0.00 0.00 56 1014.1
20260504210004 76 208 3.5 7.0 0.00 0.00 0.00 54 1014.2
20260504204503 77 223 2.6 7.0 0.00 0.00 0.00 55 1014.5
20260504203001 78 120 4.3 9.6 0.00 0.00 0.00 55 1014.6
20260504201613 77 133 4.3 7.8 0.00 0.00 0.00 54 1014.7
20260504200058 77 157 2.6 9.6 0.00 0.00 0.00 54 1015.0
20260504194558 77 179 4.3 8.7 0.00 0.00 0.00 54 1015.1
20260504193105 78 128 4.3 9.6 0.00 0.00 0.00 50 1015.4
20260504191608 78 135 4.3 9.6 0.00 0.00 0.00 50 1015.7
20260504190104 77 219 4.3 10.4 0.00 0.00 0.00 54 1015.9
20260504184552 77 177 4.3 10.4 0.00 0.00 0.00 51 1016.0
20260504183048 77 216 5.2 10.4 0.00 0.00 0.00 50 1015.8
20260504181555 78 200 5.2 8.7 0.00 0.00 0.00 50 1016.0
20260504180044 77 223 3.5 10.4 0.00 0.00 0.00 53 1016.1
20260504174544 77 182 2.6 9.6 0.00 0.00 0.00 53 1016.5
20260504173048 76 163 5.2 13.9 0.00 0.00 0.00 51 1016.8
20260504171541 76 206 5.2 11.3 0.00 0.00 0.00 50 1017.0
20260504081535 61 239 0.0 0.9 0.00 0.00 0.00 70 1016.9